User: anonymous   Login
Location: Buckland
(65.9785°N, 161.1281°W)
Time: 15:27:02
(UTC+00:00)
Language:

A-11 Canister half - Orbit

View from above orbital plane
View from above orbital plane
View from above satellite
View from above satellite

Ground track
Ground track

The orbit data is extracted from the following two-line orbital elements,

1    51U 60009C   20331.06769038 -.00000076  00000-0  80547-4 0  9991
2    51  47.2110 207.4255 0105532 284.7846  74.1269 12.18272226683787
Epoch (UTC): 26 November 2020 01:37:28
Eccentricity: 0.0105532
inclination: 47.2110°
perigee height: 1516 km
apogee height: 1684 km
right ascension of ascending node: 207.4255°
argument of perigee: 284.7846°
revolutions per day: 12.18272226
mean anomaly at epoch: 74.1269°
orbit number at epoch: 68378

The dashed part of the orbit path shows where the satellite is in the earth's shadow,  

DLR